OneWeb SL0301

operational
NORAD ID: 49090 Int'l Des: 2021-075 Owner: ONEWEBN Country: UK Constellation: oneweb
LEOCIRCULARPOLARONEWEB_TYPE

关于 OneWeb SL0301

正在加载描述...

实时位置

正在加载3D地球...

即将过境

高度历史

Altitude vs Time

uPlot chart will show altitude changes over time

两行轨道根数

1 49090U 21075R 25258.17652761 .00000506 00000-0 13709-2 0 9997
2 49090 87.8901 45.2926 0001624 80.0071 280.1241 13.12443802198491
Epoch: Sep 15, 2025 • Age: 11 hours

当前状态

高度 1218.6 km
速度 7.24 km/s
星下点 -10.67°S, 177.44°W
发射日期 Aug 21, 2021
运行时间 4 years
类型 internet

技术详情

分类 Payload
质量 148.00 kg
干质量 140.00 kg
总质量 148.00 kg
长度 1.30 m
直径 1.00 m
跨度 5.00 m
形状 Trapezoid+2 pan
制造商 ONEWUS
平台类型 ARROW
阶段状态 In Orbit
所有者/国家 ONEWEBN/UK

大型星座

Loading constellations...